Location: Fredericksburg
(30.2750°N, 98.8720°W)
Time: 22:22:23
(UTC-05:00)

ISS - All Passes

Search period start: 17 April 2015 00:00
Search period end: 27 April 2015 00:00
Orbit: 395 x 404 km, 51.6° (Epoch: 17 April)

Date Brightness Start Highest point End Pass type
(mag) Time Alt. Az. Time Alt. Az. Time Alt. Az.
17 Apr - 14:42:32 10° S 14:45:19 27° SE 14:48:08 10° ENE daylight
17 Apr - 16:19:14 10° W 16:21:42 19° NW 16:24:08 10° N daylight
17 Apr - 22:50:26 10° NNW 22:53:11 26° NE 22:55:58 10° E visible
18 Apr - 00:27:06 10° W 00:29:26 18° SW 00:31:42 10° S night (unlit)
18 Apr - 13:50:30 10° SSE 13:51:38 12° SE 13:52:54 10° ESE daylight
18 Apr - 15:24:40 10° WSW 15:27:45 39° NW 15:30:50 10° NNE daylight
18 Apr - 21:57:27 10° N 21:59:09 14° NE 22:00:57 10° ENE visible
18 Apr - 23:32:38 10° WNW 23:35:44 43° SW 23:38:48 10° SSE visible
19 Apr - 14:30:39 10° SW 14:33:53 82° SE 14:37:09 10° NE daylight
19 Apr - 22:38:40 10° NW 22:41:54 70° NE 22:45:07 10° SE visible
20 Apr - 13:37:10 10° SSW 13:40:04 31° SE 13:43:01 10° ENE daylight
20 Apr - 15:14:13 10° W 15:16:30 17° NW 15:18:45 10° N daylight
20 Apr - 21:45:03 10° NNW 21:47:56 29° NE 21:50:50 10° ESE visible
20 Apr - 23:22:03 10° W 23:24:08 16° SW 23:26:08 10° SSW visible
21 Apr - 12:44:38 10° SSE 12:46:15 13° SE 12:48:00 10° E daylight
21 Apr - 14:19:24 10° WSW 14:22:25 34° NW 14:25:25 10° NNE daylight
21 Apr - 20:51:50 10° N 20:53:48 15° NE 20:55:50 10° ENE visible
21 Apr - 22:27:16 10° WNW 22:30:18 37° SW 22:33:19 10° SSE visible
22 Apr - 13:25:09 10° SW 13:28:24 85° NW 13:31:39 10° NE daylight
22 Apr - 21:33:08 10° NW 21:36:23 82° NE 21:39:36 10° SE visible
23 Apr - 12:31:27 10° SSW 12:34:26 36° SE 12:37:28 10° ENE daylight
23 Apr - 14:08:50 10° WNW 14:10:55 16° NW 14:12:57 10° N daylight
23 Apr - 20:39:20 10° NNW 20:42:18 33° NE 20:45:17 10° ESE visible
23 Apr - 22:16:40 10° W 22:18:27 14° SW 22:20:07 10° SSW visible
24 Apr - 11:38:33 10° SSE 11:40:29 15° SE 11:42:32 10° E daylight
24 Apr - 13:13:45 10° WSW 13:16:41 30° NW 13:19:36 10° NNE daylight
24 Apr - 19:45:53 10° N 19:48:04 17° NE 19:50:17 10° E daylight
24 Apr - 21:21:33 10° WNW 21:24:30 32° SW 21:27:24 10° SSE visible
25 Apr - 12:19:18 10° SW 12:22:31 73° NW 12:25:46 10° NE daylight
25 Apr - 20:27:12 10° NW 20:30:27 86° SW 20:33:40 10° SE visible
26 Apr - 11:25:22 10° SSW 11:28:25 41° SE 11:31:30 10° ENE daylight
26 Apr - 13:03:04 10° WNW 13:04:57 14° NW 13:06:46 10° N daylight
26 Apr - 19:33:13 10° NNW 19:36:16 37° NE 19:39:19 10° ESE daylight
26 Apr - 21:10:59 10° W 21:12:22 12° SW 21:13:39 10° SSW visible
